Tucson, AZ

7:16 PM MST on February 24, 2017 (GMT -0700)
Tucson International

Weather History for KTUS - November, 2010

Change the Weather History Date:

Thursday, November 18, 2010

  Actual Average Record
Temperature  
Mean Temperature 62 °F 59 °F  
Max Temperature 81 °F 72 °F 86 °F (1990)
Min Temperature 43 °F 45 °F 24 °F (1911)
Degree Days  
Heating Degree Days 3 7  
Month to date heating degree days 80 78  
Since 1 July heating degree days 89 102  
Cooling Degree Days 0 0  
Month to date cooling degree days 36 25  
Year to date cooling degree days 3351 3144  
Growing Degree Days 12 (Base 50)    
Moisture  
Dew Point 22 °F    
Average Humidity 31    
Maximum Humidity 53    
Minimum Humidity 9    
Precipitation  
Precipitation 0.00 in 0.02 in 0.60 in (1941)
Month to date precipitation 0.00 0.30  
Year to date precipitation 10.67 10.39  
Snow  
Snow 0.00 in - - ()
Month to date snowfall 0.0  
Snow Depth 0.00 in    
Sea Level Pressure  
Sea Level Pressure 30.06 in    
Wind  
Wind Speed 5 mph (SSE)    
Max Wind Speed 12 mph    
Max Gust Speed 17 mph    
Visibility 10 miles    
Events      
T = Trace of Precipitation, MM = Missing Value Source: NWS Daily Summary

Daily Weather History Graph

Daily Weather History Graph

Search for Another Location

Airport or City:

Trip Planner

Search our weather history database for the weather conditions in past years. The results will help you decide how hot, cold, wet, or windy it might be!

Date:

Astronomy

Nov. 18, 2010 Rise Set
Actual Time 6:55 AM MST 5:22 PM MST
Civil Twilight 6:29 AM MST 5:48 PM MST
Nautical Twilight 5:59 AM MST 6:18 PM MST
Astronomical Twilight 5:30 AM MST 6:47 PM MST
Moon 3:18 PM MST (11/18) 4:02 AM MST (11/18)
Length of Visible Light 11h 19m
Length of Day
10h 26m
Waxing Gibbous, 91% of the Moon is Illuminated
Nov 18
Waxing Gibbous
Nov 21
Full
Nov 28
Last Quarter
Dec 5
New
Dec 13
First Quarter

Hourly Weather History & Observations

Time (MST) Temp. Windchill Dew Point Humidity Pressure Visibility Wind Dir Wind Speed Gust Speed Precip Events Conditions
12:53 AM 46.9 °F - 25.0 °F 42% 30.11 in 10.0 mi SSW 4.6 mph - N/A   Clear
1:53 AM 46.0 °F 42.5 °F 26.1 °F 46% 30.12 in 10.0 mi South 6.9 mph - N/A   Clear
2:53 AM 46.9 °F - 27.0 °F 46% 30.12 in 10.0 mi South 5.8 mph - N/A   Clear
3:53 AM 43.0 °F 39.5 °F 27.0 °F 53% 30.12 in 10.0 mi SW 5.8 mph - N/A   Clear
4:53 AM 46.9 °F - 25.0 °F 42% 30.11 in 10.0 mi SE 9.2 mph - N/A   Clear
5:53 AM 46.0 °F 43.9 °F 24.1 °F 42% 30.12 in 10.0 mi South 4.6 mph - N/A   Clear
6:53 AM 43.0 °F 38.8 °F 24.1 °F 47% 30.14 in 9.0 mi SE 6.9 mph - N/A   Clear
7:53 AM 48.9 °F - 23.0 °F 36% 30.15 in 10.0 mi SE 9.2 mph - N/A   Partly Cloudy
8:53 AM 59.0 °F - 23.0 °F 25% 30.15 in 10.0 mi SSE 9.2 mph - N/A   Clear
9:53 AM 64.9 °F - 21.9 °F 19% 30.14 in 10.0 mi SSE 9.2 mph - N/A   Clear
10:53 AM 70.0 °F - 21.0 °F 16% 30.11 in 10.0 mi SSE 5.8 mph - N/A   Clear
11:53 AM 75.9 °F - 19.0 °F 12% 30.06 in 10.0 mi SSE 9.2 mph - N/A   Clear
12:53 PM 78.1 °F - 19.0 °F 11% 30.03 in 10.0 mi South 5.8 mph - N/A   Clear
1:53 PM 79.0 °F - 19.0 °F 11% 30.00 in 10.0 mi SE 5.8 mph - N/A   Clear
2:53 PM 80.1 °F - 18.0 °F 10% 29.97 in 10.0 mi Calm Calm - N/A   Clear
3:53 PM 80.1 °F - 19.0 °F 10% 29.97 in 10.0 mi East 4.6 mph - N/A   Clear
4:53 PM 79.0 °F - 19.9 °F 11% 29.96 in 10.0 mi NNE 3.5 mph - N/A   Clear
5:53 PM 73.0 °F - 21.0 °F 14% 29.98 in 10.0 mi Calm Calm - N/A   Clear
6:53 PM 66.9 °F - 21.0 °F 17% 30.00 in 10.0 mi SSW 3.5 mph - N/A   Clear
7:53 PM 64.0 °F - 21.0 °F 19% 30.02 in 10.0 mi Calm Calm - N/A   Clear
8:53 PM 64.9 °F - 19.0 °F 17% 30.00 in 10.0 mi East 5.8 mph - N/A   Clear
9:53 PM 62.1 °F - 21.0 °F 21% 30.01 in 10.0 mi Calm Calm - N/A   Clear
10:53 PM 54.0 °F - 21.9 °F 29% 30.01 in 10.0 mi SSE 8.1 mph - N/A   Clear
11:53 PM 55.0 °F - 23.0 °F 29% 30.00 in 10.0 mi SSE 5.8 mph - N/A   Clear